This demonstration page uses our WeatherBlox Daily Observations layout. Learn more.

Left ArrowRight Arrow

41.86663, -103.66717

Hourly Observations for May 30, 2021

Temp ( °F °C ) Dew Point ( °F °C ) Humidity (%) Winds ( mph kmh ) Pressure ( in mb ) Visibility ( mi km ) Precip ( " mm )
12:53 am 00:53 Cloudy 56 13.3 53 11.7 90 90 ENE 5 7 30.09 1019 10 16 0.00 0.00
1:14 am 01:14 Cloudy 57 13.9 53 11.7 87 87 E 6 9 30.06 1018 10 16 0.00 0.00
1:53 am 01:53 Cloudy 56 13.3 53 11.7 90 90 NE 8 13 30.07 1018 10 16 0.00 0.00
2:53 am 02:53 Cloudy with Light Rain 56 13.3 53 11.7 90 90 NE 3 6 30.08 1019 10 16 0.00 0.00
3:01 am 03:01 Cloudy with Light Rain 56 13.3 53 11.7 90 90 E 6 9 30.07 1018 10 16 0.00 0.00
3:53 am 03:53 Cloudy 56 13.3 55 12.8 97 97 NNE 9 15 30.09 1019 10 16 0.02 0.51
4:53 am 04:53 Cloudy 54 12.2 53 11.7 97 97 NNE 13 20 30.11 1020 10 16 0.00 0.00
5:53 am 05:53 Cloudy 53 11.7 51 10.6 93 93 NE 21 33 30.12 1020 10 16 0.00 0.00
6:53 am 06:53 Cloudy 54 12.2 45 7.2 72 72 ENE 20 31 30.13 1020 10 16 0.00 0.00
7:53 am 07:53 Cloudy 55 12.8 47 8.3 74 74 NNE 15 24 30.15 1021 10 16 0.00 0.00
8:53 am 08:53 Cloudy 56 13.3 48 8.9 75 75 NE 7 11 30.17 1022 10 16 0.00 0.00
9:53 am 09:53 Cloudy with Light Rain 58 14.4 49 9.4 72 72 VRB 5 7 30.16 1022 10 16 0.00 0.00
10:53 am 10:53 Cloudy 59 15 48 8.9 67 67 SE 6 9 30.16 1022 10 16 0.00 0.00
11:53 am 11:53 Cloudy 59 15 49 9.4 69 69 S 6 9 30.16 1021 10 16 0.00 0.00
12:53 pm 12:53 Cloudy 62 16.7 47 8.3 58 58 Calm 30.15 1021 10 16 0.00 0.00
1:53 pm 13:53 Cloudy 63 17.2 47 8.3 56 56 WSW 5 7 30.14 1021 10 16 0.00 0.00
2:53 pm 14:53 Mostly Cloudy 63 17.2 49 9.4 60 60 W 6 9 30.14 1021 10 16 0.00 0.00
3:53 pm 15:53 Mostly Cloudy 64 17.8 48 8.9 56 56 S 6 9 30.13 1020 10 16 0.00 0.00
4:53 pm 16:53 Mostly Cloudy 63 17.2 46 7.8 54 54 SSW 5 7 30.14 1021 10 16 0.00 0.00
5:53 pm 17:53 Mostly Cloudy 63 17.2 46 7.8 54 54 S 7 11 30.14 1021 10 16 0.00 0.00
6:53 pm 18:53 Mostly Sunny 62 16.7 46 7.8 56 56 S 6 9 30.14 1021 10 16 0.00 0.00
7:53 pm 19:53 Sunny 59 15 47 8.3 64 64 S 3 6 30.16 1021 10 16 0.00 0.00
8:53 pm 20:53 Clear 58 14.4 48 8.9 70 70 SSW 3 6 30.18 1022 10 16 0.00 0.00
9:53 pm 21:53 Clear 54 12.2 49 9.4 83 83 SSW 5 7 30.21 1023 10 16 0.00 0.00
10:53 pm 22:53 Clear 50 10 46 7.8 86 86 NNE 3 6 30.21 1023 10 16 0.00 0.00
11:53 pm 23:53 Clear 47 8.3 45 7.2 93 93 N 5 7 30.21 1023 10 16 0.00 0.00

Powered by AerisWeather